Location: Table Mountain
(47.2500°N, 120.5778°W)
Time: 13:09:55
(UTC-07:00)

Tiangong 2 - Pass Details

Date: 16 October 2017
Orbit: 388 x 392 km, 42.8° (Epoch: 19 October)

Event Time Altitude Azimuth Distance (km) Brightness Sun altitude
Exits shadow 04:45:26 14° 113° (ESE) 1,214 4.1 -27.2°
Drops below altitude 10° 04:45:59 10° 109° (ESE) 1,416 4.6 -27.1°
Sets 04:48:08 0° 100° (E) 2,272 5.9 -26.7°
